Location: Clifton Park
(41.4873°N, 81.8024°W)
Time: 13:24:10
(UTC+00:00)

ALOS - Pass Details

Date: 21 January 2020
Orbit: 683 x 686 km, 97.8° (Epoch: 20 February)

Event Time Altitude Azimuth Distance (km) Brightness Sun altitude
Rises 11:17:26 0° 5° (N) 3,058 5.5 -16.9°
Reaches altitude 10° 11:19:46 10° 359° (N) 2,137 4.7 -16.5°
Maximum altitude 11:24:09 42° 289° (WNW) 974 2.6 -15.7°
Drops below altitude 10° 11:28:32 10° 219° (SW) 2,121 4.6 -14.9°
Sets 11:30:50 0° 212° (SSW) 3,032 5.4 -14.4°
